Date,TemperatureHighF,TemperatureAvgF,TemperatureLowF,DewpointHighF,DewpointAvgF,DewpointLowF,HumidityHigh,HumidityAvg,HumidityLow,PressureMaxIn,PressureMinIn,WindSpeedMaxMPH,WindSpeedAvgMPH,GustSpeedMaxMPH,PrecipitationSumIn
2013-1-1,63,56,51,53,42,35,83,61,43,30.15,29.91,0,0,0,0.00
2013-1-2,65,56,49,57,48,40,96,75,54,30.15,29.88,0,0,0,0.00
2013-1-3,49,46,38,46,40,34,95,83,66,30.27,30.09,0,0,0,0.12
2013-1-4,52,42,33,42,30,18,98,68,28,30.33,30.21,0,0,0,0.00
2013-1-5,50,41,31,34,25,16,88,55,27,30.39,30.27,0,0,0,0.00
2013-1-6,54,49,43,46,38,30,91,67,41,30.27,30.09,0,0,0,0.00
2013-1-7,56,49,40,43,31,20,95,54,27,30.39,30.15,0,0,0,0.00
2013-1-8,61,53,43,52,37,24,84,57,43,30.39,30.30,0,0,0,0.00
2013-1-9,68,60,53,55,49,43,92,70,41,30.39,30.30,0,0,0,0.00
2013-1-10,66,59,55,64,48,33,98,72,40,30.44,30.36,0,0,0,0.00
2013-1-11,70,60,54,63,56,40,97,86,56,30.36,30.18,0,0,0,0.04
2013-1-12,74,64,58,68,57,50,98,79,46,30.18,30.09,0,0,0,0.00
2013-1-13,74,63,57,67,57,46,98,83,41,30.18,30.09,0,0,0,0.00
2013-1-14,74,63,58,69,58,50,98,87,45,30.18,30.09,0,0,0,0.00
2013-1-15,70,63,58,65,59,50,98,89,51,30.15,30.03,0,0,0,0.00
2013-1-16,72,64,60,68,58,50,98,83,50,30.06,29.94,0,0,0,0.00
2013-1-17,70,61,46,68,54,30,98,79,48,30.00,29.74,0,0,0,0.16
2013-1-18,54,44,38,35,23,11,85,46,20,30.50,30.00,0,0,0,0.00
2013-1-19,54,46,35,44,28,17,93,54,28,30.48,30.21,0,0,0,0.00
2013-1-20,68,54,46,50,31,14,98,53,15,30.21,30.00,0,0,0,0.00
2013-1-21,67,53,39,40,26,14,73,39,15,30.06,29.91,0,0,0,0.00
2013-1-22,53,45,33,21,14,6,44,30,18,30.24,30.00,0,0,0,0.00
2013-1-23,47,39,29,26,10,-3,56,32,18,30.39,30.15,0,0,0,0.00
2013-1-24,60,46,31,31,17,-3,50,33,21,30.50,30.03,0,0,0,0.00
2013-1-25,42,35,26,25,9,-6,52,35,23,30.48,30.12,0,0,0,0.00
2013-1-26,56,43,34,29,19,15,50,38,26,30.36,30.12,0,0,0,0.00
2013-1-27,48,41,31,27,20,14,66,44,36,30.53,30.33,0,0,0,0.00
2013-1-28,57,46,37,44,33,20,89,60,38,30.48,30.27,0,0,0,0.00
2013-1-29,68,55,44,66,50,42,98,85,48,30.27,30.12,0,0,0,0.00
2013-1-30,66,62,58,62,58,53,98,90,64,30.12,29.59,0,0,0,0.00
2013-1-31,66,52,44,63,24,8,93,38,17,30.12,29.59,0,0,0,0.20
2013-2-1,58,46,34,21,10,-3,35,24,16,30.36,30.09,0,0,0,0.00
2013-2-2,49,41,29,39,15,-6,73,37,20,30.39,30.06,0,0,0,0.00
2013-2-3,59,49,42,27,21,15,52,36,19,30.06,29.88,0,0,0,0.00
2013-2-4,49,41,32,30,20,15,68,45,28,30.15,30.00,0,0,0,0.00
2013-2-5,69,53,40,43,31,21,64,46,17,30.06,29.91,0,0,0,0.00
2013-2-6,68,56,50,47,39,29,81,55,24,30.21,30.00,0,0,0,0.00
2013-2-7,61,54,47,56,48,39,98,81,55,30.18,29.71,0,0,0,0.91
2013-2-8,64,57,49,56,40,31,98,59,29,30.03,29.65,0,0,0,0.08
2013-2-9,60,48,37,39,21,11,78,38,17,30.36,30.03,0,0,0,0.00
2013-2-10,58,51,38,50,34,22,84,54,29,30.42,30.21,0,0,0,0.00
2013-2-11,67,61,56,64,57,47,98,88,67,30.24,30.00,0,0,0,0.51
2013-2-12,62,58,49,60,52,39,98,84,45,30.09,29.91,0,0,0,0.51
2013-2-13,68,56,49,62,47,34,98,77,34,29.94,29.68,0,0,0,0.16
2013-2-14,54,50,42,45,29,20,75,48,28,30.06,29.83,0,0,0,0.00
2013-2-15,59,47,36,45,33,24,98,63,28,30.09,29.94,0,0,0,0.00
2013-2-16,57,43,34,43,34,25,97,74,33,29.97,29.77,0,0,0,0.16
2013-2-17,42,34,29,32,13,2,94,46,21,30.30,29.94,0,0,0,0.00
2013-2-18,51,40,28,27,15,10,69,39,21,30.44,30.27,0,0,0,0.00
2013-2-19,63,51,36,56,42,27,94,73,37,30.27,29.94,0,0,0,0.04
2013-2-20,56,52,43,45,30,11,76,49,18,30.12,30.00,0,0,0,0.00
2013-2-21,53,46,37,40,23,10,71,42,21,30.18,30.09,0,0,0,0.00
2013-2-22,52,50,45,50,39,21,98,68,37,30.24,30.03,0,0,0,0.08
2013-2-23,49,46,44,49,45,44,98,98,98,30.03,29.88,0,0,0,0.39
2013-2-24,67,56,48,51,43,27,98,69,23,29.97,29.88,0,0,0,0.35
2013-2-25,51,50,45,48,42,23,89,79,42,30.09,29.97,0,0,0,0.00
2013-2-26,67,57,45,64,55,41,98,95,74,30.00,29.56,0,0,0,1.02
2013-2-27,61,54,48,56,32,23,95,45,26,29.85,29.65,0,0,0,0.00
2013-2-28,60,52,42,37,25,17,71,39,22,29.85,29.74,0,0,0,0.00
2013-3-1,56,47,39,25,21,17,50,36,25,29.91,29.80,0,0,0,0.00
2013-3-2,54,46,37,34,23,18,79,41,26,29.88,29.80,0,0,0,0.00
2013-3-3,52,42,36,32,16,10,78,38,21,29.97,29.85,0,0,0,0.00
2013-3-4,55,42,31,19,12,6,51,31,18,30.12,29.97,0,0,0,0.00
2013-3-5,63,53,39,51,34,19,80,51,34,30.12,29.65,0,0,0,0.00
2013-3-6,62,50,42,44,19,12,55,30,20,30.03,29.59,0,0,0,0.00
2013-3-7,59,47,36,22,19,16,52,34,22,30.18,30.03,0,0,0,0.00
2013-3-8,59,48,35,20,16,11,48,30,17,30.24,30.12,0,0,0,0.00
2013-3-9,58,48,38,34,24,15,68,39,25,30.30,30.21,0,0,0,0.00
2013-3-10,58,49,39,47,36,28,91,64,33,30.30,30.21,0,0,0,0.00
2013-3-11,68,57,46,56,47,39,97,72,37,30.21,29.91,0,0,0,0.00
2013-3-12,71,62,57,66,55,38,98,81,43,29.91,29.77,0,0,0,0.24
2013-3-13,66,57,46,38,22,11,51,28,15,30.09,29.88,0,0,0,0.00
2013-3-14,56,46,36,16,10,5,34,22,17,30.27,30.06,0,0,0,0.00
2013-3-15,58,49,35,37,24,13,60,38,21,30.21,30.00,0,0,0,0.00
2013-3-16,81,64,55,42,34,27,52,33,14,30.00,29.80,0,0,0,0.00
2013-3-17,80,64,57,46,38,32,51,38,20,30.03,29.88,0,0,0,0.00
2013-3-18,61,55,51,56,48,38,98,77,43,30.09,29.85,0,0,0,0.00
2013-3-19,72,60,52,58,42,21,98,62,17,29.97,29.77,0,0,0,0.35
2013-3-20,59,52,42,27,18,10,56,28,17,30.09,29.80,0,0,0,0.00
2013-3-21,57,47,40,33,13,2,72,29,15,29.94,29.71,0,0,0,0.00
2013-3-22,51,43,31,24,11,-1,39,28,19,30.09,29.91,0,0,0,0.00
2013-3-23,52,47,41,43,34,21,83,61,31,30.06,29.88,0,0,0,0.16
2013-3-24,64,52,46,60,47,35,98,83,50,29.88,29.41,0,0,0,1.69
2013-3-25,57,49,43,44,24,9,92,45,18,29.88,29.53,0,0,0,0.00
2013-3-26,54,44,34,18,14,11,47,31,20,30.12,29.88,0,0,0,0.00
2013-3-27,59,46,34,22,16,10,58,33,17,30.24,30.12,0,0,0,0.00
2013-3-28,60,47,34,19,15,9,45,30,17,30.27,30.15,0,0,0,0.00
2013-3-29,59,49,35,32,22,16,55,35,25,30.33,30.21,0,0,0,0.00
2013-3-30,61,55,49,49,37,27,85,53,36,30.24,30.09,0,0,0,0.00
2013-3-31,70,62,52,56,48,40,89,63,36,30.09,29.85,0,0,0,0.16
2013-4-1,77,66,59,62,51,37,96,65,24,29.91,29.83,0,0,0,0.20
2013-4-2,62,57,51,49,31,19,67,38,22,30.15,29.88,0,0,0,0.00
2013-4-3,61,56,51,52,35,17,93,49,19,30.24,30.06,0,0,0,0.00
2013-4-4,60,55,50,60,45,27,98,73,35,30.24,29.80,0,0,0,0.94
2013-4-5,60,50,44,50,41,33,98,74,36,30.00,29.83,0,0,0,0.00
2013-4-6,63,54,44,52,39,30,98,63,31,30.27,30.00,0,0,0,0.00
2013-4-7,63,58,51,56,47,42,87,68,48,30.27,30.12,0,0,0,0.00
2013-4-8,73,64,55,67,52,42,95,69,35,30.18,30.12,0,0,0,0.00
2013-4-9,75,67,60,67,57,50,94,72,44,30.21,30.12,0,0,0,0.00
2013-4-10,76,68,63,65,56,46,94,69,38,30.15,30.03,0,0,0,0.00
2013-4-11,76,68,63,71,61,54,97,79,48,30.03,29.85,0,0,0,0.00
2013-4-12,76,69,66,72,65,55,98,88,53,29.85,29.71,0,0,0,1.61
2013-4-13,74,64,57,69,43,27,98,51,18,30.03,29.77,0,0,0,0.00
2013-4-14,70,62,53,63,52,42,98,74,37,30.09,30.00,0,0,0,0.00
2013-4-15,70,66,62,63,54,46,94,67,43,30.15,29.88,0,0,0,0.63
2013-4-16,71,66,60,65,55,47,96,71,45,30.27,30.15,0,0,0,0.00
2013-4-17,75,67,60,70,58,50,98,74,45,30.24,30.12,0,0,0,0.00
2013-4-18,76,69,64,69,60,50,98,76,42,30.18,30.03,0,0,0,0.00
2013-4-19,76,71,67,68,65,60,98,81,60,30.03,29.85,0,0,0,0.91
2013-4-20,68,58,49,68,43,24,98,63,25,30.24,29.88,0,0,0,0.12
2013-4-21,67,56,45,44,33,24,82,46,24,30.36,30.21,0,0,0,0.00
2013-4-22,70,57,47,36,30,19,56,37,24,30.36,30.12,0,0,0,0.00
2013-4-23,67,58,52,49,42,36,89,55,34,30.21,30.12,0,0,0,0.00
2013-4-24,72,64,52,62,50,44,96,65,42,30.18,30.06,0,0,0,0.00
2013-4-25,76,67,60,63,57,45,95,72,35,30.24,30.06,0,0,0,0.59
2013-4-26,70,62,52,60,44,28,98,60,24,30.39,30.24,0,0,0,0.00
2013-4-27,70,65,61,56,45,28,80,52,25,30.33,30.24,0,0,0,0.00
2013-4-28,72,67,64,58,53,48,81,61,45,30.24,30.06,0,0,0,0.00
2013-4-29,71,66,64,66,61,51,98,83,55,30.06,29.97,0,0,0,1.69
2013-4-30,71,67,64,68,58,48,98,76,46,30.09,29.94,0,0,0,0.00
2013-5-1,72,65,60,60,52,42,87,64,36,30.18,30.06,0,0,0,0.00
2013-5-2,71,67,64,61,53,44,83,64,46,30.21,30.15,0,0,0,0.00
2013-5-3,69,63,59,53,44,27,75,51,26,30.15,30.06,0,0,0,0.00
2013-5-4,66,60,56,56,46,35,79,59,43,30.06,29.94,0,0,0,0.00
2013-5-5,71,64,60,61,54,45,91,71,39,29.97,29.83,0,0,0,0.12
2013-5-6,73,67,60,64,51,40,96,61,30,29.88,29.80,0,0,0,0.55
2013-5-7,70,62,56,53,43,32,75,52,27,29.97,29.88,0,0,0,0.24
2013-5-8,74,66,56,55,48,39,87,55,33,30.03,29.94,0,0,0,0.20
2013-5-9,78,70,63,55,49,40,66,48,27,30.09,29.97,0,0,0,0.00
2013-5-10,79,72,64,61,51,44,74,50,31,30.09,30.00,0,0,0,0.00
2013-5-11,78,73,69,69,59,46,91,64,35,30.03,29.85,0,0,0,0.00
2013-5-12,84,75,65,60,43,24,67,36,14,29.97,29.80,0,0,0,0.00
2013-5-13,74,65,56,35,25,17,38,23,13,30.12,29.97,0,0,0,0.00
2013-5-14,71,63,52,40,29,22,53,29,17,30.27,30.12,0,0,0,0.00
2013-5-15,84,71,63,47,42,32,51,36,19,30.15,29.97,0,0,0,0.00
2013-5-16,90,76,67,56,45,38,52,35,18,30.03,29.97,0,0,0,0.00
2013-5-17,85,75,68,55,50,40,61,43,21,30.09,30.00,0,0,0,0.00
2013-5-18,80,74,68,66,59,50,83,62,39,30.18,30.09,0,0,0,0.00
2013-5-19,79,74,71,68,61,52,88,66,40,30.15,30.06,0,0,0,0.00
2013-5-20,73,72,72,69,65,62,88,78,70,30.09,30.06,0,0,0,0.00
2013-5-21,78,74,71,73,65,54,92,76,47,30.09,29.97,0,0,0,0.04
2013-5-22,83,75,68,73,63,56,95,69,43,30.03,29.94,0,0,0,0.00
2013-5-23,82,75,68,73,65,53,93,73,42,29.97,29.85,0,0,0,0.35
2013-5-24,79,71,60,70,54,24,92,63,15,30.15,29.80,0,0,0,0.00
2013-5-25,78,64,50,40,30,20,55,30,13,30.30,30.15,0,0,0,0.00
2013-5-26,76,68,60,54,40,27,65,39,18,30.24,30.15,0,0,0,0.00
2013-5-27,79,72,63,61,50,41,91,48,28,30.27,30.18,0,0,0,0.00
2013-5-28,82,76,68,66,54,47,86,49,32,30.27,30.18,0,0,0,0.00
2013-5-29,83,77,72,60,51,46,63,42,29,30.27,30.15,0,0,0,0.00
2013-5-30,84,76,71,63,55,50,63,49,34,30.27,30.18,0,0,0,0.00
2013-5-31,84,78,70,74,60,53,91,57,38,30.24,30.15,0,0,0,0.00
2013-6-1,85,78,70,74,58,51,91,53,32,30.18,30.09,0,0,0,0.00
2013-6-2,85,78,74,69,62,56,78,59,37,30.12,29.94,0,0,0,0.00
2013-6-3,80,75,70,76,69,55,94,83,51,29.97,29.85,0,0,0,1.54
2013-6-4,83,76,70,78,67,58,98,77,46,30.06,29.91,0,0,0,0.00
2013-6-5,82,77,75,72,67,60,87,73,48,30.06,29.97,0,0,0,0.00
2013-6-6,82,77,73,74,69,61,95,76,49,29.97,29.77,0,0,0,0.91
2013-6-7,85,78,73,75,65,50,98,68,30,29.85,29.56,0,0,0,0.98
2013-6-8,79,78,76,74,69,68,91,74,69,29.91,29.85,0,0,0,0.00
2013-6-9,79,79,79,68,68,68,69,69,69,29.91,29.91,0,0,0,0.00
2013-6-10,79,79,79,68,68,68,69,69,69,29.91,29.91,0,0,0,0.00
2013-6-11,90,79,75,74,67,46,91,68,23,29.97,29.91,0,0,0,0.24
2013-6-12,89,82,72,77,68,59,97,66,39,29.97,29.88,0,0,0,0.00
2013-6-13,99,88,79,78,60,45,88,46,16,29.91,29.68,0,0,0,0.00
2013-6-14,87,80,73,67,44,33,75,32,16,30.00,29.71,0,0,0,0.00
2013-6-15,84,78,72,47,40,29,40,27,16,30.15,30.00,0,0,0,0.00
2013-6-16,85,79,73,49,44,40,41,30,21,30.18,30.06,0,0,0,0.00
2013-6-17,87,80,74,65,57,49,62,46,29,30.09,29.97,0,0,0,0.00
2013-6-18,89,81,74,73,62,52,88,56,29,30.00,29.83,0,0,0,0.20
2013-6-19,83,78,74,71,64,55,83,62,41,30.06,29.85,0,0,0,0.04
2013-6-20,83,76,69,67,55,42,79,50,27,30.18,30.03,0,0,0,0.04
2013-6-21,84,75,66,70,55,43,89,52,33,30.18,30.12,0,0,0,0.04
2013-6-22,84,76,71,75,66,56,97,74,41,30.15,30.09,0,0,0,0.00
2013-6-23,86,80,73,75,65,55,91,62,39,30.21,30.15,0,0,0,0.00
2013-6-24,87,81,78,71,65,54,77,60,34,30.24,30.15,0,0,0,0.00
2013-6-25,87,82,76,73,65,56,84,59,34,30.15,30.06,0,0,0,0.00
2013-6-26,92,81,75,70,62,51,85,56,27,30.06,29.94,0,0,0,0.00
2013-6-27,89,80,74,73,66,53,87,64,32,30.00,29.80,0,0,0,0.08
2013-6-28,93,84,78,74,66,53,80,58,27,29.83,29.65,0,0,0,0.00
2013-6-29,87,80,74,74,64,52,86,60,32,29.77,29.68,0,0,0,0.20
2013-6-30,85,79,74,75,70,57,92,75,46,29.88,29.74,0,0,0,0.83
2013-7-1,83,78,74,76,69,58,95,74,46,30.03,29.83,0,0,0,2.36
2013-7-2,82,79,74,75,69,58,93,73,46,30.18,30.03,0,0,0,0.59
2013-7-3,87,81,77,74,68,60,83,66,44,30.24,30.15,0,0,0,0.04
2013-7-4,87,83,79,71,63,57,74,54,37,30.27,30.21,0,0,0,0.00
2013-7-5,87,83,80,71,64,58,75,55,40,30.27,30.18,0,0,0,0.00
2013-7-6,87,83,77,67,59,52,64,46,32,30.24,30.15,0,0,0,0.00
2013-7-7,88,83,80,63,56,49,56,41,29,30.21,30.09,0,0,0,0.00
2013-7-8,88,81,73,71,58,50,85,49,29,30.21,30.12,0,0,0,0.00
2013-7-9,88,82,74,68,61,53,77,51,33,30.21,30.09,0,0,0,0.00
2013-7-10,89,83,77,72,61,54,80,50,32,30.15,29.97,0,0,0,0.00
2013-7-11,89,82,77,70,63,51,76,55,28,30.00,29.88,0,0,0,0.00
2013-7-12,81,77,74,74,68,63,94,76,55,29.97,29.88,0,0,0,0.43
2013-7-13,85,79,74,74,65,58,92,64,41,30.12,29.94,0,0,0,0.00
2013-7-14,87,82,75,76,63,58,81,54,39,30.24,30.12,0,0,0,0.28
2013-7-15,87,83,80,69,65,60,68,57,41,30.27,30.21,0,0,0,0.00
2013-7-16,88,82,75,77,62,52,94,53,30,30.27,30.18,0,0,0,0.00
2013-7-17,92,80,72,74,66,53,94,66,28,30.39,30.12,0,0,0,1.26
2013-7-18,89,81,73,81,66,56,98,67,33,30.56,30.30,0,0,0,0.00
2013-7-19,89,82,75,73,62,54,87,53,32,31.01,30.56,0,0,0,0.00
2013-7-20,87,81,77,69,63,52,69,55,32,31.01,28.44,0,0,0,0.00
2013-7-21,87,79,75,70,64,58,81,62,39,28.44,28.44,0,0,0,0.00
2013-7-22,92,82,75,72,62,50,87,56,25,28.44,28.44,0,0,0,0.00
2013-7-23,91,81,76,68,60,48,76,52,24,28.44,28.44,0,0,0,0.00
2013-7-24,86,80,76,73,66,57,84,63,40,28.44,28.44,0,0,0,0.00
2013-7-25,86,80,72,74,62,51,93,59,31,29.97,28.44,0,0,0,0.00
2013-7-26,85,79,73,68,60,57,76,53,40,30.06,29.97,0,0,0,0.00
2013-7-27,86,81,77,66,60,54,67,49,35,30.03,29.91,0,0,0,0.00
2013-7-28,88,81,75,72,66,59,88,63,38,30.00,29.91,0,0,0,0.00
2013-7-29,89,80,73,76,69,50,92,73,29,30.12,30.00,0,0,0,0.47
2013-7-30,86,80,74,77,67,57,98,70,40,30.18,30.09,0,0,0,0.08
2013-7-31,86,80,75,79,68,55,93,70,42,30.12,30.00,0,0,0,0.16
2013-8-1,85,78,74,74,67,53,95,70,33,30.00,29.91,0,0,0,0.87
2013-8-2,89,81,76,77,68,54,92,68,33,30.03,29.91,0,0,0,1.26
2013-8-3,88,83,78,77,66,58,90,61,38,30.03,29.91,0,0,0,0.00
2013-8-4,94,83,75,72,58,44,87,48,18,29.97,29.88,0,0,0,0.00
2013-8-5,86,83,79,47,40,36,31,22,19,30.06,30.00,0,0,0,0.00
2013-8-6,86,81,78,49,45,37,35,28,22,30.06,29.97,0,0,0,0.00
2013-8-7,86,80,73,70,56,46,80,46,29,30.09,30.00,0,0,0,0.00
2013-8-8,88,81,73,80,66,55,95,65,36,30.06,30.00,0,0,0,0.00
2013-8-9,90,83,78,77,65,54,88,56,32,30.09,30.00,0,0,0,0.00
2013-8-10,91,83,76,78,65,52,93,57,28,30.12,30.03,0,0,0,0.00
2013-8-11,95,85,78,75,64,47,88,53,20,30.12,30.03,0,0,0,0.00
2013-8-12,96,85,79,76,63,45,83,51,19,30.06,29.94,0,0,0,0.00
2013-8-13,97,85,79,76,63,44,82,51,17,29.97,29.83,0,0,0,0.00
2013-8-14,85,78,68,73,66,57,89,67,39,30.00,29.83,0,0,0,0.00
2013-8-15,70,67,64,70,65,59,98,94,76,30.09,30.00,0,0,0,0.35
2013-8-16,75,71,66,71,65,57,93,84,54,30.09,30.03,0,0,0,0.67
2013-8-17,83,74,69,71,65,56,97,74,40,30.15,30.03,0,0,0,0.00
2013-8-18,85,78,71,74,66,58,96,71,41,30.18,30.12,0,0,0,0.00
2013-8-19,88,80,76,80,72,54,94,79,35,30.15,30.03,0,0,0,0.51
2013-8-20,87,80,74,81,71,62,98,76,43,30.15,30.06,0,0,0,0.00
2013-8-21,89,82,75,81,66,56,96,63,34,30.21,30.09,0,0,0,0.00
2013-8-22,90,80,75,73,65,52,91,64,28,30.15,30.00,0,0,0,0.00
2013-8-23,94,82,75,71,61,43,88,54,18,30.03,29.94,0,0,0,0.00
2013-8-24,83,77,72,69,55,42,86,50,26,30.21,30.00,0,0,0,0.00
2013-8-25,82,75,66,58,46,38,75,39,22,30.30,30.21,0,0,0,0.00
2013-8-26,83,75,66,56,46,36,70,39,19,30.24,30.12,0,0,0,0.00
2013-8-27,85,76,67,67,50,37,91,46,20,30.12,30.00,0,0,0,0.00
2013-8-28,88,80,72,63,54,44,73,43,24,30.00,29.91,0,0,0,0.00
2013-8-29,94,82,75,68,57,44,66,45,19,29.94,29.85,0,0,0,0.00
2013-8-30,83,79,72,70,63,56,84,59,40,30.00,29.91,0,0,0,0.00
2013-8-31,87,81,73,77,66,57,95,63,39,29.97,29.88,0,0,0,0.00
2013-9-1,89,83,77,75,66,51,89,61,28,29.94,29.83,0,0,0,0.00
2013-9-2,94,84,79,73,64,46,78,54,20,29.91,29.80,0,0,0,0.00
2013-9-3,89,80,74,70,60,48,77,52,29,29.94,29.80,0,0,0,0.08
2013-9-4,87,81,73,72,64,55,90,59,34,30.06,29.91,0,0,0,0.00
2013-9-5,89,82,76,76,65,56,91,59,33,30.06,29.97,0,0,0,0.00
2013-9-6,88,79,70,63,53,39,67,44,19,30.09,30.00,0,0,0,0.00
2013-9-7,84,76,68,65,53,39,87,49,21,30.09,29.97,0,0,0,0.00
2013-9-8,87,78,68,67,55,44,90,49,23,30.00,29.88,0,0,0,0.04
2013-9-9,87,80,71,71,55,48,84,45,29,30.12,29.94,0,0,0,0.00
2013-9-10,88,81,73,70,56,43,82,46,23,30.21,30.12,0,0,0,0.00
2013-9-11,86,79,72,73,59,45,92,55,26,30.18,30.06,0,0,0,0.00
2013-9-12,88,79,70,71,57,44,92,53,25,30.09,29.85,0,0,0,0.00
2013-9-13,91,80,74,67,57,40,73,48,18,29.85,29.74,0,0,0,0.00
2013-9-14,82,76,70,54,46,37,55,35,25,30.06,29.80,0,0,0,0.00
2013-9-15,83,77,69,65,58,47,79,53,39,30.15,30.06,0,0,0,0.00
2013-9-16,88,80,74,70,60,48,85,53,26,30.12,30.00,0,0,0,0.04
2013-9-17,80,74,68,71,45,35,85,38,21,30.21,30.06,0,0,0,0.00
2013-9-18,80,68,59,51,39,33,59,36,20,30.21,30.12,0,0,0,0.00
2013-9-19,80,72,62,54,44,35,75,41,21,30.15,30.06,0,0,0,0.00
2013-9-20,82,74,64,60,48,36,84,46,20,30.06,29.94,0,0,0,0.00
2013-9-21,77,73,69,66,55,46,81,55,34,29.94,29.88,0,0,0,0.00
2013-9-23,77,70,64,48,39,33,56,34,21,30.03,29.97,0,0,0,0.00
2013-9-24,76,68,60,53,43,31,75,44,20,30.06,29.91,0,0,0,0.00
2013-9-25,77,71,64,61,48,43,83,46,31,29.94,29.80,0,0,0,0.04
2013-9-26,79,70,63,66,50,32,97,59,20,29.94,29.80,0,0,0,0.24
2013-9-27,77,67,65,44,42,33,45,41,21,30.09,29.94,0,0,0,0.00
2013-9-28,79,69,62,50,42,36,63,40,22,30.15,30.06,0,0,0,0.00
2013-9-29,79,67,59,57,45,30,91,53,17,30.09,30.00,0,0,0,0.00
2013-9-30,76,71,63,56,43,34,77,39,23,30.03,29.97,0,0,0,0.00
2013-10-1,79,69,59,58,46,33,93,52,20,30.12,30.03,0,0,0,0.00
2013-10-2,83,72,62,60,49,37,80,48,20,30.12,30.03,0,0,0,0.00
2013-10-3,80,73,64,66,59,48,96,66,33,30.15,30.06,0,0,0,0.00
2013-10-4,83,74,68,76,64,50,98,73,34,30.12,30.03,0,0,0,0.00
2013-10-5,82,74,67,71,63,47,98,71,32,30.12,30.03,0,0,0,0.00
2013-10-6,83,76,70,76,66,60,97,75,48,30.06,29.94,0,0,0,0.04
2013-10-7,78,76,73,73,68,63,94,78,61,29.94,29.80,0,0,0,0.67
2013-10-8,73,65,58,71,61,50,98,87,67,30.06,29.85,0,0,0,0.63
2013-10-9,75,64,58,58,47,40,98,57,30,30.03,30.00,0,0,0,0.00
2013-10-10,71,64,60,53,44,38,67,48,32,30.00,29.91,0,0,0,0.00
2013-10-11,78,70,63,62,51,37,81,56,23,29.97,29.88,0,0,0,0.00
2013-10-12,82,72,65,63,51,36,83,53,21,30.03,29.91,0,0,0,0.00
2013-10-13,75,69,63,64,57,49,93,68,41,30.09,30.03,0,0,0,0.00
2013-10-14,79,71,68,60,54,44,74,56,31,30.12,30.03,0,0,0,0.00
2013-10-15,72,67,62,57,50,42,73,54,35,30.09,30.00,0,0,0,0.00
2013-10-16,73,68,63,63,55,44,90,65,37,30.03,29.94,0,0,0,0.00
2013-10-17,78,70,61,66,56,45,98,67,32,29.97,29.85,0,0,0,0.00
2013-10-18,76,71,66,71,65,61,95,82,62,29.97,29.88,0,0,0,0.08
2013-10-19,80,71,66,75,66,49,98,86,45,29.94,29.85,0,0,0,0.16
2013-10-20,69,65,58,57,43,31,80,47,25,30.06,29.88,0,0,0,0.00
2013-10-21,71,63,57,51,43,36,76,51,29,30.12,30.00,0,0,0,0.00
2013-10-22,68,64,60,62,51,40,94,65,36,30.00,29.83,0,0,0,0.04
2013-10-23,73,64,55,63,41,16,98,55,14,30.00,29.71,0,0,0,0.08
2013-10-24,64,54,43,38,22,13,63,31,16,30.18,30.00,0,0,0,0.00
2013-10-25,62,53,43,39,25,11,64,37,16,30.36,30.12,0,0,0,0.00
2013-10-26,66,51,38,34,25,15,68,41,15,30.33,30.12,0,0,0,0.00
2013-10-27,67,57,46,48,32,18,80,42,18,30.12,30.06,0,0,0,0.00
2013-10-28,73,62,53,58,47,32,93,63,23,30.24,30.12,0,0,0,0.00
2013-10-29,72,63,55,60,52,40,98,71,32,30.30,30.21,0,0,0,0.00
2013-10-30,73,64,56,64,53,43,98,71,34,30.30,30.18,0,0,0,0.00
2013-10-31,76,67,58,68,59,50,98,76,42,30.21,29.97,0,0,0,0.00
2013-11-1,82,74,70,68,59,45,93,62,30,29.97,29.74,0,0,0,0.12
2013-11-2,72,66,56,70,53,30,97,68,23,29.91,29.71,0,0,0,0.91
2013-11-3,66,56,50,40,26,14,59,35,15,30.30,29.91,0,0,0,0.00
2013-11-4,64,55,47,28,21,13,38,27,18,30.44,30.30,0,0,0,0.00
2013-11-5,67,55,44,57,41,19,91,60,32,30.42,30.33,0,0,0,0.00
2013-11-6,72,65,58,65,50,39,95,61,35,30.33,30.09,0,0,0,0.12
2013-11-7,74,67,59,66,58,22,98,76,24,30.09,29.91,0,0,0,0.28
2013-11-8,60,52,43,32,18,9,57,28,14,30.30,30.03,0,0,0,0.00
2013-11-9,62,52,40,46,28,17,71,42,19,30.36,30.21,0,0,0,0.00
2013-11-10,69,59,53,46,35,18,73,45,15,30.24,30.12,0,0,0,0.00
2013-11-11,61,54,48,41,24,11,76,35,17,30.30,30.15,0,0,0,0.00
2013-11-12,70,55,39,44,25,7,87,39,14,30.36,30.00,0,0,0,0.00
2013-11-13,48,39,32,22,10,1,59,33,17,30.50,30.36,0,0,0,0.00
2013-11-14,57,43,30,35,18,6,72,39,15,30.50,30.33,0,0,0,0.00
2013-11-15,63,56,42,58,46,35,86,72,40,30.33,30.15,0,0,0,0.00
2013-11-16,70,64,60,66,58,47,98,81,45,30.21,30.15,0,0,0,0.00
2013-11-17,69,64,57,66,60,51,98,89,56,30.18,29.97,0,0,0,0.00
2013-11-18,83,70,64,73,59,26,98,72,24,29.97,29.80,0,0,0,0.04
2013-11-19,64,56,49,26,15,10,27,20,16,30.24,29.88,0,0,0,0.00
2013-11-20,60,52,44,32,23,16,46,32,25,30.33,30.21,0,0,0,0.00
2013-11-21,69,59,50,58,43,32,89,58,33,30.39,30.33,0,0,0,0.00
2013-11-22,69,64,60,63,58,48,97,84,50,30.33,30.12,0,0,0,0.00
2013-11-23,67,63,56,66,56,20,98,82,25,30.12,30.00,0,0,0,0.04
2013-11-24,56,42,33,20,2,-4,25,19,16,30.53,30.09,0,0,0,0.04
2013-11-25,47,39,30,23,3,-9,41,23,17,30.56,30.27,0,0,0,0.00
2013-11-26,68,61,44,68,56,27,98,84,51,30.27,29.62,0,0,0,1.61
2013-11-27,68,54,36,67,46,14,98,76,39,30.18,29.47,0,0,0,0.08
2013-11-28,46,37,30,25,9,-1,67,34,17,30.48,30.18,0,0,0,0.00
2013-11-29,56,43,32,24,15,7,70,36,15,30.53,30.44,0,0,0,0.00
2013-11-30,57,46,35,26,19,12,50,34,25,30.53,30.30,0,0,0,0.00
2013-12-1,60,52,47,48,37,26,89,57,40,30.30,30.00,0,0,0,0.00
2013-12-2,62,53,47,49,40,24,93,65,25,30.00,29.80,0,0,0,0.00
2013-12-3,62,54,44,55,44,34,93,73,35,30.00,29.85,0,0,0,0.08
2013-12-4,72,62,57,66,55,46,98,80,43,30.09,29.97,0,0,0,0.08
2013-12-5,70,63,56,67,58,53,98,86,58,30.18,30.06,0,0,0,0.00
2013-12-6,74,67,63,67,59,47,98,80,42,30.15,30.06,0,0,0,0.00
2013-12-7,75,59,46,69,55,43,98,87,44,30.36,30.06,0,0,0,0.12
2013-12-8,46,44,42,44,41,40,95,90,83,30.36,30.24,0,0,0,0.04
2013-12-9,59,51,43,58,50,41,98,94,71,30.24,30.03,0,0,0,0.00
2013-12-10,72,60,44,69,52,32,98,78,36,30.33,29.91,0,0,0,0.12
2013-12-11,50,43,35,41,19,5,87,43,16,30.44,30.27,0,0,0,0.00
2013-12-12,52,42,33,34,16,0,76,41,16,30.39,30.24,0,0,0,0.00
2013-12-13,52,42,30,35,18,5,65,43,16,30.42,30.27,0,0,0,0.00
2013-12-14,70,60,47,69,50,32,98,72,49,30.27,29.74,0,0,0,0.20
2013-12-15,67,57,45,63,42,24,86,60,27,30.09,29.74,0,0,0,0.08
2013-12-16,59,47,36,37,28,11,88,53,17,30.21,30.09,0,0,0,0.00
2013-12-17,66,54,43,33,21,12,54,30,15,30.18,30.03,0,0,0,0.00
2013-12-18,56,48,36,23,13,4,50,27,15,30.33,30.03,0,0,0,0.00
2013-12-19,60,46,33,45,27,10,89,54,14,30.36,30.24,0,0,0,0.00
2013-12-20,75,60,50,60,48,31,95,70,21,30.24,30.15,0,0,0,0.00
2013-12-21,72,63,55,66,58,50,96,82,47,30.18,30.06,0,0,0,0.00
2013-12-22,74,67,62,68,60,46,97,82,42,30.15,30.06,0,0,0,0.00
2013-12-23,70,66,61,69,64,57,98,95,68,30.12,30.03,0,0,0,0.16
2013-12-24,61,50,40,60,33,10,98,56,20,30.39,30.03,0,0,0,0.04
2013-12-25,48,39,31,12,6,-1,34,25,17,30.48,30.33,0,0,0,0.00
2013-12-26,49,43,36,36,25,12,76,51,34,30.33,30.21,0,0,0,0.00
2013-12-27,57,46,38,35,18,7,75,36,15,30.42,30.30,0,0,0,0.00
2013-12-28,59,48,33,49,22,7,80,40,14,30.39,30.06,0,0,0,0.16
2013-12-29,72,63,52,68,53,33,98,75,26,30.06,29.74,0,0,0,1.06
2013-12-30,56,51,47,51,45,37,98,82,52,30.15,29.94,0,0,0,0.00
2013-12-31,56,50,43,46,30,12,84,48,20,30.36,30.12,0,0,0,0.00
2014-1-1,52,46,40,46,32,12,94,65,21,30.39,30.12,0,0,0,0.08
2014-1-2,59,52,47,58,50,37,98,95,56,30.15,29.59,0,0,0,0.67